Location: Kosice
(0.0000°N, 21.2500°E)
Time: 05:28:27
(UTC+01:00)

Cosmos 2278 Rocket - Pass Details

Date: 24 January 2021
Orbit: 840 x 847 km, 71.0° (Epoch: 04 March)

Event Time Altitude Azimuth Distance (km) Brightness Sun altitude
Rises 18:07:00 0° 209° (SSW) 3,392 6.2 -4.7°
Reaches altitude 10° 18:09:33 10° 216° (SW) 2,456 5.6 -5.3°
Maximum altitude 18:14:50 41° 285° (WNW) 1,195 3.6 -6.5°
Drops below altitude 10° 18:20:06 10° 355° (N) 2,451 4.5 -7.8°
Sets 18:22:40 0° 2° (N) 3,384 5.1 -8.4°
